San Luis Potosi, Mexico

1:09 AM CDT on April 26, 2017 (GMT -0500)
Ponciano Arriaga International

Weather History for MMSP - November, 2012

Change the Weather History Date:

Friday, November 16, 2012

  Actual Average Record
Temperature  
Mean Temperature 64 °F -  
Max Temperature 76 °F 70 °F 81 °F (2015)
Min Temperature 53 °F 43 °F 33 °F (1999)
Growing Degree Days 14 (Base 50)    
Moisture  
Dew Point 49 °F    
Average Humidity 65    
Maximum Humidity 82    
Minimum Humidity 16    
Precipitation  
Precipitation 0.00 in - - ()
Sea Level Pressure  
Sea Level Pressure 30.17 in    
Wind  
Wind Speed 4 mph ()    
Max Wind Speed 18 mph    
Max Gust Speed -    
Visibility 10.1 miles    
Events      
Averages and records for this station are not official NWS values.
T = Trace of Precipitation, MM = Missing Value Source: Averaged Metar Reports

Daily Weather History Graph

Daily Weather History Graph

Search for Another Location

Airport or City:

Trip Planner

Search our weather history database for the weather conditions in past years. The results will help you decide how hot, cold, wet, or windy it might be!

Date:

Astronomy

Nov. 16, 2012 Rise Set
Actual Time 6:56 AM CST 6:00 PM CST
Civil Twilight 6:33 AM CST 6:23 PM CST
Nautical Twilight 6:06 AM CST 6:50 PM CST
Astronomical Twilight 5:39 AM CST 7:17 PM CST
Moon 9:47 AM CST (11/16) 9:05 PM CST (11/16)
Length of Visible Light 11h 50m
Length of Day
11h 03m
Waxing Crescent, 12% of the Moon is Illuminated
Nov 16
Waxing Crescent
Nov 20
First Quarter
Nov 28
Full
Dec 6
Last Quarter
Dec 13
New

Hourly Weather History & Observations

Time (CST) Temp. Dew Point Humidity Pressure Visibility Wind Dir Wind Speed Gust Speed Precip Events Conditions
12:47 AM 51.8 °F 46.4 °F 82% 30.32 in 8.0 mi East 4.6 mph - N/A   Scattered Clouds
1:44 AM 53.6 °F 48.2 °F 82% 30.31 in 7.0 mi Calm Calm - N/A   Mostly Cloudy
2:47 AM 53.6 °F 48.2 °F 82% 29.99 in 7.0 mi Calm Calm - N/A   Mostly Cloudy
2:50 AM 56 °F 51 °F 80% 30.11 in 5 mi East 4.5 mph - -   Overcast
3:45 AM 53.6 °F 48.2 °F 82% 30.31 in 7.0 mi Calm Calm - N/A   Overcast
4:43 AM 53.6 °F 48.2 °F 82% 30.30 in 7.0 mi NE 5.8 mph - N/A   Overcast
5:41 AM 53.6 °F 48.2 °F 82% 30.02 in 7.0 mi NE 5.8 mph - N/A   Overcast
5:50 AM 56 °F 50 °F 73% 30.12 in 5 mi ENE 4.5 mph - -   Overcast
6:43 AM 55.4 °F 50.0 °F 82% 30.31 in 7.0 mi Calm Calm - N/A   Overcast
7:41 AM 55.4 °F 50.0 °F 82% 30.32 in 8.0 mi ENE 5.8 mph - N/A   Overcast
8:44 AM 57.2 °F 50.0 °F 77% 30.09 in 8.0 mi West 4.6 mph - N/A   Overcast
8:45 AM 60 °F 51 °F 63% 30.15 in 6 mi Calm Calm - -   Haze
9:46 AM 60.8 °F 50.0 °F 68% 30.36 in 10.0 mi NNE 5.8 mph - N/A   Scattered Clouds
10:45 AM 66.2 °F 50.0 °F 56% 30.35 in 12.0 mi Calm Calm - N/A   Clear
11:41 AM 69.8 °F 48.2 °F 46% 29.96 in 15.0 mi ESE 4.6 mph - N/A   Clear
11:45 AM 65 °F 46 °F 39% 30.12 in 7 mi South 2.2 mph - -   Haze
12:46 PM 71.6 °F 48.2 °F 43% 30.28 in 15.0 mi NNE 8.1 mph - N/A   Partly Cloudy
1:43 PM 73.4 °F 50.0 °F 44% 30.24 in 15.0 mi NNE 18.4 mph - N/A   Partly Cloudy
2:50 PM 75 °F 38 °F 16% 29.99 in 12 mi ENE 4.5 mph - -  
2:50 PM 73.4 °F 50.0 °F 44% 29.89 in 15.0 mi NNE 18.4 mph - N/A   Partly Cloudy
3:50 PM 73.4 °F 50.0 °F 44% 30.25 in 15.0 mi NNE 18.4 mph - N/A   Partly Cloudy
5:43 PM 66.2 °F 50.0 °F 56% 29.94 in 15.0 mi NE 13.8 mph - N/A   Scattered Clouds
5:45 PM 65 °F 50 °F 49% 29.95 in 7 mi ESE 4.5 mph - -   Haze
6:48 PM 60.8 °F 50.0 °F 68% 30.30 in 12.0 mi ENE 6.9 mph - N/A   Scattered Clouds
7:46 PM 59.0 °F 46.4 °F 63% 30.33 in 12.0 mi Calm Calm - N/A   Scattered Clouds
8:46 PM 57.2 °F 48.2 °F 72% 30.05 in 12.0 mi ENE 5.8 mph - N/A   Scattered Clouds
8:50 PM 71 °F 48 °F 33% 30.08 in 12 mi South 6.7 mph - -  
9:40 PM 55.4 °F 50.0 °F 82% 30.35 in 12.0 mi East 6.9 mph - N/A   Scattered Clouds
10:42 PM 55.4 °F 50.0 °F 82% 30.36 in 12.0 mi ESE 11.5 mph - N/A   Scattered Clouds
11:41 PM 55.4 °F 50.0 °F 82% 30.00 in 12.0 mi East 9.2 mph - N/A   Scattered Clouds